| time (UTC) | temp F | wind direction | speed MPH | gust MPH | rain 1hr in | rain 24hr in | rain mn in | humidity % | barometer mb |
| 20260904073859 | 81 | 174 | 12.0 | 14.0 | 0.00 | 0.00 | 0.00 | 85 | 1014.6 |
| 20260904073355 | 81 | 177 | 6.0 | 9.0 | 0.00 | 0.00 | 0.00 | 85 | 1014.7 |
| 20260904072850 | 81 | 165 | 5.0 | 6.0 | 0.00 | 0.00 | 0.00 | 85 | 1014.6 |
| 20260904072345 | 81 | 134 | 7.0 | 10.0 | 0.00 | 0.00 | 0.00 | 85 | 1014.9 |
| 20260904071841 | 81 | 181 | 6.0 | 8.0 | 0.00 | 0.00 | 0.00 | 84 | 1014.7 |
| 20260904071335 | 81 | 160 | 6.0 | 9.0 | 0.00 | 0.00 | 0.00 | 84 | 1015.0 |
| 20260904070825 | 81 | 163 | 6.0 | 7.0 | 0.00 | 0.00 | 0.00 | 84 | 1015.1 |
| 20260904070323 | 81 | 167 | 5.0 | 8.0 | 0.00 | 0.00 | 0.00 | 84 | 1015.1 |
| 20260904065818 | 81 | 133 | 4.0 | 6.0 | 0.00 | 0.00 | 0.00 | 84 | 1015.3 |
| 20260904065314 | 81 | 151 | 4.0 | 6.0 | 0.00 | 0.00 | 0.00 | 84 | 1015.3 |
| 20260904064809 | 81 | 133 | 6.0 | 8.0 | 0.00 | 0.00 | 0.00 | 84 | 1015.2 |
| 20260904064305 | 81 | 169 | 6.0 | 9.0 | 0.00 | 0.00 | 0.00 | 84 | 1015.1 |
| 20260904063801 | 81 | 166 | 4.0 | 6.0 | 0.00 | 0.00 | 0.00 | 84 | 1015.2 |
| 20260904063257 | 81 | 159 | 6.0 | 7.0 | 0.00 | 0.00 | 0.00 | 84 | 1014.9 |
| 20260904062752 | 81 | 192 | 2.0 | 2.0 | 0.00 | 0.00 | 0.00 | 84 | 1015.1 |
| 20260904062248 | 81 | 192 | 6.0 | 8.0 | 0.00 | 0.00 | 0.00 | 84 | 1015.0 |
| 20260904061743 | 81 | 105 | 3.0 | 3.0 | 0.00 | 0.00 | 0.00 | 83 | 1015.0 |
| 20260904061239 | 81 | 123 | 6.0 | 8.0 | 0.00 | 0.00 | 0.00 | 84 | 1015.1 |
| 20260904060736 | 81 | 171 | 4.0 | 4.0 | 0.00 | 0.00 | 0.00 | 83 | 1014.9 |
| 20260904060231 | 81 | 135 | 2.0 | 3.0 | 0.00 | 0.00 | 0.00 | 83 | 1015.1 |
| 20260904055726 | 81 | 131 | 9.0 | 9.0 | 0.00 | 0.00 | 0.00 | 84 | 1015.1 |
| 20260904055220 | 80 | 143 | 6.0 | 8.0 | 0.00 | 0.00 | 0.00 | 84 | 1015.4 |
| 20260904054716 | 80 | 118 | 5.0 | 7.0 | 0.00 | 0.00 | 0.00 | 83 | 1015.2 |
| 20260904054212 | 81 | 125 | 8.0 | 9.0 | 0.00 | 0.00 | 0.00 | 83 | 1015.1 |
| 20260904053707 | 81 | 115 | 2.0 | 2.0 | 0.00 | 0.00 | 0.00 | 83 | 1015.1 |
| 20260904053202 | 81 | 84 | 7.0 | 9.0 | 0.00 | 0.00 | 0.00 | 83 | 1015.2 |
| 20260904052658 | 80 | 120 | 6.0 | 8.0 | 0.00 | 0.00 | 0.00 | 83 | 1015.2 |
| 20260904052154 | 80 | 131 | 5.0 | 7.0 | 0.00 | 0.00 | 0.00 | 83 | 1015.0 |
| 20260904051650 | 80 | 154 | 7.0 | 9.0 | 0.00 | 0.00 | 0.00 | 83 | 1014.9 |
| 20260904051145 | 80 | 140 | 6.0 | 8.0 | 0.00 | 0.00 | 0.00 | 83 | 1014.9 |
| 20260904050640 | 80 | 145 | 8.0 | 10.0 | 0.00 | 0.00 | 0.00 | 83 | 1014.9 |
| 20260904050136 | 80 | 130 | 5.0 | 10.0 | 0.00 | 0.00 | 0.00 | 83 | 1014.9 |
| 20260904045630 | 80 | 138 | 6.0 | 7.0 | 0.00 | 0.00 | 0.00 | 83 | 1015.0 |
| 20260904045125 | 80 | 82 | 4.0 | 6.0 | 0.00 | 0.00 | 0.00 | 83 | 1015.0 |
| 20260904044621 | 80 | 159 | 6.0 | 10.0 | 0.00 | 0.00 | 0.00 | 83 | 1015.1 |
| 20260904044117 | 80 | 119 | 6.0 | 7.0 | 0.00 | 0.00 | 0.00 | 83 | 1014.9 |
| 20260904043614 | 80 | 108 | 9.0 | 10.0 | 0.00 | 0.00 | 0.00 | 83 | 1015.0 |
| 20260904043109 | 80 | 78 | 3.0 | 4.0 | 0.00 | 0.00 | 0.00 | 82 | 1015.0 |
| 20260904042605 | 81 | 149 | 5.0 | 8.0 | 0.00 | 0.00 | 0.00 | 82 | 1015.0 |
| 20260904042100 | 81 | 139 | 4.0 | 7.0 | 0.00 | 0.00 | 0.00 | 82 | 1015.0 |
| 20260904041556 | 81 | 126 | 5.0 | 6.0 | 0.00 | 0.00 | 0.00 | 82 | 1015.0 |
| 20260904041052 | 81 | 131 | 4.0 | 4.0 | 0.00 | 0.00 | 0.00 | 82 | 1015.0 |
| 20260904040552 | 81 | 109 | 4.0 | 4.0 | 0.00 | 0.00 | 0.00 | 82 | 1014.9 |
| 20260904040049 | 81 | 94 | 7.0 | 11.0 | 0.00 | 0.00 | 0.00 | 81 | 1014.9 |
| 20260904035549 | 81 | 166 | 3.0 | 6.0 | 0.00 | 0.00 | 0.00 | 81 | 1014.9 |
| 20260904035043 | 81 | 101 | 5.0 | 7.0 | 0.00 | 0.00 | 0.00 | 81 | 1014.7 |
| 20260904034538 | 81 | 118 | 6.0 | 8.0 | 0.00 | 0.00 | 0.00 | 81 | 1015.0 |
| 20260904034033 | 81 | 121 | 5.0 | 6.0 | 0.00 | 0.00 | 0.00 | 80 | 1014.7 |
| 20260904033529 | 81 | 113 | 6.0 | 9.0 | 0.00 | 0.00 | 0.00 | 80 | 1014.9 |
| 20260904033027 | 81 | 127 | 6.0 | 8.0 | 0.00 | 0.00 | 0.00 | 79 | 1014.9 |
| 20260904032522 | 81 | 125 | 7.0 | 9.0 | 0.00 | 0.00 | 0.00 | 79 | 1014.6 |
| 20260904032020 | 81 | 122 | 11.0 | 11.0 | 0.00 | 0.00 | 0.00 | 79 | 1014.7 |
| 20260904031515 | 81 | 120 | 9.0 | 11.0 | 0.00 | 0.00 | 0.00 | 79 | 1014.8 |
| 20260904031011 | 82 | 119 | 10.0 | 14.0 | 0.00 | 0.00 | 0.00 | 78 | 1014.7 |
| 20260904030507 | 82 | 94 | 9.0 | 9.0 | 0.00 | 0.00 | 0.00 | 78 | 1014.6 |
| 20260904030002 | 82 | 187 | 10.0 | 13.0 | 0.00 | 0.00 | 0.00 | 77 | 1014.5 |
| 20260904025458 | 82 | 82 | 6.0 | 8.0 | 0.00 | 0.00 | 0.00 | 77 | 1014.6 |
| 20260904024958 | 82 | 107 | 14.0 | 16.0 | 0.00 | 0.00 | 0.00 | 76 | 1014.6 |
| 20260904024453 | 82 | 87 | 4.0 | 4.0 | 0.00 | 0.00 | 0.00 | 75 | 1014.4 |
| 20260904023949 | 82 | 150 | 6.0 | 7.0 | 0.00 | 0.00 | 0.00 | 75 | 1014.5 |
| 20260904023445 | 82 | 96 | 6.0 | 8.0 | 0.00 | 0.00 | 0.00 | 74 | 1014.4 |
| 20260904022945 | 83 | 130 | 2.0 | 3.0 | 0.00 | 0.00 | 0.00 | 74 | 1014.4 |
| 20260904022441 | 83 | 119 | 9.0 | 13.0 | 0.00 | 0.00 | 0.00 | 74 | 1014.2 |
| 20260904021937 | 83 | 94 | 6.0 | 8.0 | 0.00 | 0.00 | 0.00 | 73 | 1014.1 |
| 20260904021433 | 83 | 110 | 8.0 | 10.0 | 0.00 | 0.00 | 0.00 | 73 | 1014.1 |
| 20260904020927 | 83 | 84 | 6.0 | 8.0 | 0.00 | 0.00 | 0.00 | 73 | 1013.9 |
| 20260904020422 | 83 | 123 | 4.0 | 7.0 | 0.00 | 0.00 | 0.00 | 72 | 1013.8 |
| 20260904015921 | 83 | 100 | 6.0 | 9.0 | 0.00 | 0.00 | 0.00 | 72 | 1013.9 |
| 20260904015417 | 83 | 168 | 2.0 | 3.0 | 0.00 | 0.00 | 0.00 | 72 | 1013.9 |
| 20260904014915 | 84 | 76 | 2.0 | 3.0 | 0.00 | 0.00 | 0.00 | 71 | 1013.9 |
| 20260904014411 | 84 | 83 | 12.0 | 14.0 | 0.00 | 0.00 | 0.00 | 71 | 1013.7 |
| 20260904013906 | 84 | 83 | 5.0 | 6.0 | 0.00 | 0.00 | 0.00 | 70 | 1013.8 |
| 20260904013402 | 84 | 82 | 6.0 | 9.0 | 0.00 | 0.00 | 0.00 | 70 | 1013.8 |
| 20260904012857 | 84 | 95 | 5.0 | 6.0 | 0.00 | 0.00 | 0.00 | 70 | 1013.6 |
| 20260904012352 | 84 | 77 | 3.0 | 4.0 | 0.00 | 0.00 | 0.00 | 69 | 1013.6 |
| 20260904011851 | 84 | 91 | 7.0 | 9.0 | 0.00 | 0.00 | 0.00 | 69 | 1013.6 |
| 20260904011346 | 84 | 103 | 11.0 | 15.0 | 0.00 | 0.00 | 0.00 | 69 | 1013.2 |
| 20260904010841 | 84 | 95 | 4.0 | 4.0 | 0.00 | 0.00 | 0.00 | 69 | 1013.4 |
| 20260904010338 | 85 | 168 | 5.0 | 7.0 | 0.00 | 0.00 | 0.00 | 69 | 1013.2 |
| 20260904005833 | 85 | 115 | 6.0 | 9.0 | 0.00 | 0.00 | 0.00 | 69 | 1013.5 |
| 20260904005328 | 85 | 103 | 5.0 | 9.0 | 0.00 | 0.00 | 0.00 | 68 | 1013.4 |
| 20260904004823 | 85 | 152 | 6.0 | 8.0 | 0.00 | 0.00 | 0.00 | 68 | 1013.4 |
| 20260904004320 | 85 | 114 | 5.0 | 7.0 | 0.00 | 0.00 | 0.00 | 68 | 1013.4 |
| 20260904003814 | 85 | 96 | 11.0 | 14.0 | 0.00 | 0.00 | 0.00 | 68 | 1013.5 |
| 20260904003311 | 86 | 88 | 8.0 | 11.0 | 0.00 | 0.00 | 0.00 | 67 | 1013.4 |
| 20260904002806 | 86 | 123 | 9.0 | 15.0 | 0.00 | 0.00 | 0.00 | 67 | 1013.5 |
| 20260904002306 | 86 | 116 | 6.0 | 8.0 | 0.00 | 0.00 | 0.00 | 67 | 1013.5 |
| 20260904001801 | 86 | 59 | 6.0 | 8.0 | 0.00 | 0.00 | 0.00 | 67 | 1013.2 |
| 20260904001256 | 86 | 102 | 7.0 | 10.0 | 0.00 | 0.00 | 0.00 | 67 | 1013.4 |
| 20260904000751 | 87 | 100 | 5.0 | 10.0 | 0.00 | 0.00 | 0.00 | 66 | 1013.4 |
| 20260904000251 | 87 | 112 | 7.0 | 10.0 | 0.00 | 0.00 | 0.00 | 66 | 1013.2 |
| 20260903235750 | 87 | 66 | 8.0 | 10.0 | 0.00 | 0.00 | 0.00 | 65 | 1013.2 |
| 20260903235247 | 87 | 82 | 10.0 | 13.0 | 0.00 | 0.00 | 0.00 | 66 | 1013.1 |
| 20260903234746 | 87 | 73 | 6.0 | 9.0 | 0.00 | 0.00 | 0.00 | 66 | 1013.1 |
| 20260903234243 | 88 | 40 | 6.0 | 8.0 | 0.00 | 0.00 | 0.00 | 65 | 1013.2 |
| 20260903233738 | 88 | 104 | 7.0 | 10.0 | 0.00 | 0.00 | 0.00 | 65 | 1013.0 |
| 20260903233234 | 88 | 110 | 12.0 | 17.0 | 0.00 | 0.00 | 0.00 | 65 | 1012.8 |
| 20260903232732 | 88 | 76 | 10.0 | 13.0 | 0.00 | 0.00 | 0.00 | 65 | 1012.8 |
| 20260903232229 | 88 | 59 | 12.0 | 16.0 | 0.00 | 0.00 | 0.00 | 65 | 1012.9 |
| 20260903231728 | 88 | 145 | 10.0 | 14.0 | 0.00 | 0.00 | 0.00 | 66 | 1013.0 |
| 20260903231223 | 89 | 116 | 11.0 | 13.0 | 0.00 | 0.00 | 0.00 | 66 | 1013.0 |
| 20260903230720 | 89 | 127 | 15.0 | 17.0 | 0.00 | 0.00 | 0.00 | 65 | 1012.9 |
| 20260903230220 | 89 | 63 | 10.0 | 18.0 | 0.00 | 0.00 | 0.00 | 65 | 1012.9 |
| 20260903225716 | 90 | 88 | 8.0 | 11.0 | 0.00 | 0.00 | 0.00 | 64 | 1012.7 |
| 20260903225212 | 91 | 142 | 9.0 | 11.0 | 0.00 | 0.00 | 0.00 | 64 | 1012.6 |
| 20260903224708 | 91 | 133 | 3.0 | 7.0 | 0.00 | 0.00 | 0.00 | 65 | 1012.6 |
| 20260903224204 | 91 | 78 | 10.0 | 14.0 | 0.00 | 0.00 | 0.00 | 65 | 1012.5 |
| 20260903223659 | 91 | 151 | 4.0 | 6.0 | 0.00 | 0.00 | 0.00 | 66 | 1012.4 |
| 20260903223157 | 92 | 67 | 15.0 | 22.0 | 0.00 | 0.00 | 0.00 | 64 | 1012.3 |
| 20260903222652 | 92 | 78 | 15.0 | 21.0 | 0.00 | 0.00 | 0.00 | 62 | 1012.5 |
| 20260903222150 | 92 | 97 | 18.0 | 24.0 | 0.00 | 0.00 | 0.00 | 62 | 1012.2 |
| 20260903221646 | 93 | 108 | 6.0 | 7.0 | 0.00 | 0.00 | 0.00 | 62 | 1012.4 |
| 20260903221144 | 93 | 117 | 13.0 | 16.0 | 0.00 | 0.00 | 0.00 | 61 | 1012.4 |
| 20260903220643 | 92 | 83 | 9.0 | 10.0 | 0.00 | 0.00 | 0.00 | 60 | 1012.5 |
| 20260903220138 | 93 | 77 | 12.0 | 18.0 | 0.00 | 0.00 | 0.00 | 61 | 1012.2 |
| 20260903215637 | 93 | 89 | 6.0 | 10.0 | 0.00 | 0.00 | 0.00 | 59 | 1012.4 |
| 20260903215133 | 94 | 71 | 7.0 | 13.0 | 0.00 | 0.00 | 0.00 | 56 | 1012.2 |
| 20260903214631 | 93 | 78 | 8.0 | 13.0 | 0.00 | 0.00 | 0.00 | 55 | 1012.3 |
| 20260903214127 | 93 | 65 | 5.0 | 8.0 | 0.00 | 0.00 | 0.00 | 56 | 1012.5 |
| 20260903213621 | 94 | 121 | 4.0 | 6.0 | 0.00 | 0.00 | 0.00 | 56 | 1012.5 |
| 20260903213117 | 93 | 88 | 10.0 | 14.0 | 0.00 | 0.00 | 0.00 | 57 | 1012.4 |
| 20260903212613 | 93 | 100 | 8.0 | 10.0 | 0.00 | 0.00 | 0.00 | 56 | 1012.6 |
| 20260903212108 | 94 | 116 | 7.0 | 10.0 | 0.00 | 0.00 | 0.00 | 55 | 1012.3 |
| 20260903211603 | 94 | 50 | 4.0 | 9.0 | 0.00 | 0.00 | 0.00 | 55 | 1012.5 |
| 20260903211100 | 94 | 92 | 10.0 | 13.0 | 0.00 | 0.00 | 0.00 | 53 | 1012.5 |
| 20260903210555 | 95 | 52 | 7.0 | 11.0 | 0.00 | 0.00 | 0.00 | 53 | 1012.7 |
| 20260903210050 | 94 | 83 | 11.0 | 15.0 | 0.00 | 0.00 | 0.00 | 53 | 1012.8 |
| 20260903205549 | 95 | 78 | 9.0 | 13.0 | 0.00 | 0.00 | 0.00 | 54 | 1012.7 |
| 20260903205044 | 94 | 83 | 4.0 | 6.0 | 0.00 | 0.00 | 0.00 | 54 | 1012.8 |
| 20260903204540 | 94 | 119 | 8.0 | 10.0 | 0.00 | 0.00 | 0.00 | 56 | 1012.8 |
| 20260903204035 | 94 | 51 | 10.0 | 16.0 | 0.00 | 0.00 | 0.00 | 55 | 1012.9 |
| 20260903203531 | 95 | 86 | 6.0 | 10.0 | 0.00 | 0.00 | 0.00 | 54 | 1013.1 |
| 20260903203030 | 95 | 94 | 8.0 | 11.0 | 0.00 | 0.00 | 0.00 | 53 | 1013.0 |
| 20260903202526 | 95 | 68 | 5.0 | 8.0 | 0.00 | 0.00 | 0.00 | 54 | 1013.1 |
| 20260903202021 | 95 | 127 | 5.0 | 6.0 | 0.00 | 0.00 | 0.00 | 54 | 1013.1 |
| 20260903201516 | 95 | 70 | 11.0 | 16.0 | 0.00 | 0.00 | 0.00 | 54 | 1013.4 |
| 20260903201015 | 95 | 79 | 9.0 | 11.0 | 0.00 | 0.00 | 0.00 | 53 | 1013.4 |
| 20260903200510 | 96 | 107 | 4.0 | 7.0 | 0.00 | 0.00 | 0.00 | 51 | 1013.2 |
| 20260903200005 | 95 | 71 | 1.0 | 2.0 | 0.00 | 0.00 | 0.00 | 54 | 1013.5 |
| 20260903195501 | 96 | 99 | 8.0 | 13.0 | 0.00 | 0.00 | 0.00 | 53 | 1013.4 |
| 20260903194956 | 96 | 63 | 6.0 | 10.0 | 0.00 | 0.00 | 0.00 | 51 | 1013.5 |
| 20260903194451 | 95 | 108 | 5.0 | 6.0 | 0.00 | 0.00 | 0.00 | 52 | 1013.5 |
| 20260903193947 | 95 | 71 | 2.0 | 3.0 | 0.00 | 0.00 | 0.00 | 53 | 1013.6 |
| 20260903193443 | 95 | 68 | 4.0 | 6.0 | 0.00 | 0.00 | 0.00 | 53 | 1013.5 |
| 20260903192938 | 95 | 79 | 4.0 | 8.0 | 0.00 | 0.00 | 0.00 | 54 | 1013.8 |
| 20260903192435 | 94 | 142 | 7.0 | 9.0 | 0.00 | 0.00 | 0.00 | 52 | 1013.8 |
| 20260903191930 | 93 | 104 | 6.0 | 8.0 | 0.00 | 0.00 | 0.00 | 54 | 1013.9 |
| 20260903191426 | 93 | 131 | 1.0 | 3.0 | 0.00 | 0.00 | 0.00 | 54 | 1013.9 |
| 20260903190925 | 93 | 88 | 4.0 | 6.0 | 0.00 | 0.00 | 0.00 | 55 | 1014.1 |
| 20260903190425 | 93 | 171 | 3.0 | 6.0 | 0.00 | 0.00 | 0.00 | 54 | 1014.1 |
| 20260903185920 | 93 | 74 | 2.0 | 3.0 | 0.00 | 0.00 | 0.00 | 56 | 1014.3 |
| 20260903185415 | 94 | 137 | 5.0 | 7.0 | 0.00 | 0.00 | 0.00 | 55 | 1014.5 |
| 20260903184909 | 94 | 117 | 3.0 | 3.0 | 0.00 | 0.00 | 0.00 | 54 | 1014.5 |
| 20260903184406 | 93 | 202 | 5.0 | 7.0 | 0.00 | 0.00 | 0.00 | 54 | 1014.6 |
| 20260903183906 | 93 | 145 | 2.0 | 2.0 | 0.00 | 0.00 | 0.00 | 53 | 1014.7 |
| 20260903183401 | 94 | 130 | 6.0 | 8.0 | 0.00 | 0.00 | 0.00 | 53 | 1014.6 |
| 20260903182855 | 94 | 6 | 0.0 | 0.0 | 0.00 | 0.00 | 0.00 | 54 | 1014.7 |
| 20260903182354 | 95 | 163 | 3.0 | 3.0 | 0.00 | 0.00 | 0.00 | 52 | 1014.7 |
| 20260903181849 | 95 | 154 | 5.0 | 7.0 | 0.00 | 0.00 | 0.00 | 53 | 1014.7 |
| 20260903181343 | 93 | 60 | 2.0 | 2.0 | 0.00 | 0.00 | 0.00 | 55 | 1014.9 |
| 20260903180838 | 93 | 143 | 2.0 | 2.0 | 0.00 | 0.00 | 0.00 | 55 | 1015.0 |
| 20260903180337 | 91 | 112 | 4.0 | 7.0 | 0.00 | 0.00 | 0.00 | 58 | 1015.1 |
| 20260903175832 | 92 | 177 | 4.0 | 4.0 | 0.00 | 0.00 | 0.00 | 58 | 1015.3 |
| 20260903175331 | 92 | 139 | 6.0 | 9.0 | 0.00 | 0.00 | 0.00 | 56 | 1015.4 |
| 20260903174825 | 91 | 44 | 2.0 | 2.0 | 0.00 | 0.00 | 0.00 | 58 | 1015.4 |
| 20260903174321 | 92 | 99 | 9.0 | 10.0 | 0.00 | 0.00 | 0.00 | 58 | 1015.5 |
| 20260903173815 | 91 | 79 | 2.0 | 2.0 | 0.00 | 0.00 | 0.00 | 59 | 1015.4 |
| 20260903173311 | 92 | 94 | 5.0 | 6.0 | 0.00 | 0.00 | 0.00 | 57 | 1015.5 |
| 20260903172807 | 91 | 41 | 3.0 | 4.0 | 0.00 | 0.00 | 0.00 | 61 | 1015.4 |
| 20260903172301 | 92 | 127 | 2.0 | 3.0 | 0.00 | 0.00 | 0.00 | 59 | 1015.5 |
| 20260903171756 | 92 | 186 | 3.0 | 6.0 | 0.00 | 0.00 | 0.00 | 57 | 1015.6 |
| 20260903171252 | 91 | 215 | 7.0 | 10.0 | 0.00 | 0.00 | 0.00 | 58 | 1015.5 |
| 20260903170750 | 90 | 191 | 3.0 | 4.0 | 0.00 | 0.00 | 0.00 | 60 | 1015.6 |
| 20260903170246 | 90 | 221 | 2.0 | 2.0 | 0.00 | 0.00 | 0.00 | 62 | 1015.6 |
| 20260903165744 | 90 | 181 | 10.0 | 13.0 | 0.00 | 0.00 | 0.00 | 62 | 1015.7 |
| 20260903165239 | 90 | 188 | 8.0 | 10.0 | 0.00 | 0.00 | 0.00 | 62 | 1015.6 |
| 20260903164739 | 89 | 86 | 7.0 | 9.0 | 0.00 | 0.00 | 0.00 | 63 | 1015.7 |
| 20260903164235 | 89 | 199 | 8.0 | 10.0 | 0.00 | 0.00 | 0.00 | 65 | 1015.4 |
| 20260903163734 | 89 | 195 | 8.0 | 9.0 | 0.00 | 0.00 | 0.00 | 64 | 1015.6 |
| 20260903163231 | 89 | 144 | 6.0 | 8.0 | 0.00 | 0.00 | 0.00 | 65 | 1015.5 |
| 20260903162726 | 89 | 168 | 11.0 | 14.0 | 0.00 | 0.00 | 0.00 | 65 | 1015.6 |
| 20260903162222 | 90 | 138 | 6.0 | 8.0 | 0.00 | 0.00 | 0.00 | 64 | 1015.6 |
| 20260903161718 | 88 | 210 | 5.0 | 6.0 | 0.00 | 0.00 | 0.00 | 65 | 1015.5 |
| 20260903161213 | 88 | 165 | 8.0 | 10.0 | 0.00 | 0.00 | 0.00 | 66 | 1015.5 |
| 20260903160709 | 88 | 177 | 10.0 | 11.0 | 0.00 | 0.00 | 0.00 | 66 | 1015.4 |
| 20260903160202 | 88 | 193 | 11.0 | 13.0 | 0.00 | 0.00 | 0.00 | 66 | 1015.5 |
| 20260903155701 | 88 | 178 | 10.0 | 10.0 | 0.00 | 0.00 | 0.00 | 67 | 1015.5 |
| 20260903155156 | 88 | 211 | 7.0 | 9.0 | 0.00 | 0.00 | 0.00 | 67 | 1015.4 |
| 20260903154652 | 88 | 212 | 3.0 | 4.0 | 0.00 | 0.00 | 0.00 | 66 | 1015.5 |
| 20260903154148 | 87 | 230 | 8.0 | 10.0 | 0.00 | 0.00 | 0.00 | 69 | 1015.6 |
| 20260903153644 | 87 | 155 | 10.0 | 13.0 | 0.00 | 0.00 | 0.00 | 69 | 1015.5 |
| 20260903153139 | 86 | 217 | 8.0 | 10.0 | 0.00 | 0.00 | 0.00 | 70 | 1015.5 |
| 20260903152635 | 86 | 157 | 7.0 | 9.0 | 0.00 | 0.00 | 0.00 | 71 | 1015.4 |
| 20260903152131 | 86 | 201 | 6.0 | 9.0 | 0.00 | 0.00 | 0.00 | 70 | 1015.5 |
| 20260903151630 | 86 | 221 | 7.0 | 9.0 | 0.00 | 0.00 | 0.00 | 72 | 1015.3 |
| 20260903151125 | 86 | 146 | 4.0 | 6.0 | 0.00 | 0.00 | 0.00 | 73 | 1015.5 |
| 20260903150620 | 86 | 175 | 9.0 | 10.0 | 0.00 | 0.00 | 0.00 | 73 | 1015.3 |
| 20260903150115 | 86 | 176 | 9.0 | 11.0 | 0.00 | 0.00 | 0.00 | 71 | 1015.3 |
| 20260903145615 | 86 | 203 | 6.0 | 9.0 | 0.00 | 0.00 | 0.00 | 73 | 1015.4 |
| 20260903145110 | 85 | 199 | 8.0 | 10.0 | 0.00 | 0.00 | 0.00 | 75 | 1015.5 |
| 20260903144609 | 85 | 218 | 4.0 | 6.0 | 0.00 | 0.00 | 0.00 | 75 | 1015.7 |
| 20260903144105 | 85 | 214 | 5.0 | 7.0 | 0.00 | 0.00 | 0.00 | 76 | 1015.4 |
| 20260903143601 | 85 | 250 | 6.0 | 7.0 | 0.00 | 0.00 | 0.00 | 75 | 1015.4 |
| 20260903143056 | 85 | 204 | 11.0 | 14.0 | 0.00 | 0.00 | 0.00 | 76 | 1015.4 |
| 20260903142552 | 85 | 298 | 9.0 | 10.0 | 0.00 | 0.00 | 0.00 | 77 | 1015.3 |
| 20260903142049 | 84 | 145 | 4.0 | 6.0 | 0.00 | 0.00 | 0.00 | 78 | 1015.3 |
| 20260903141549 | 83 | 229 | 7.0 | 10.0 | 0.00 | 0.00 | 0.00 | 79 | 1015.4 |
| 20260903141044 | 83 | 195 | 3.0 | 6.0 | 0.00 | 0.00 | 0.00 | 80 | 1015.4 |
| 20260903140540 | 82 | 170 | 9.0 | 13.0 | 0.00 | 0.00 | 0.00 | 80 | 1015.5 |
| 20260903140035 | 82 | 183 | 8.0 | 11.0 | 0.00 | 0.00 | 0.00 | 81 | 1015.6 |
| 20260903135531 | 82 | 131 | 9.0 | 14.0 | 0.00 | 0.00 | 0.00 | 80 | 1015.3 |
| 20260903135031 | 83 | 171 | 14.0 | 19.0 | 0.00 | 0.00 | 0.00 | 80 | 1015.3 |
| 20260903134530 | 82 | 186 | 6.0 | 8.0 | 0.00 | 0.00 | 0.00 | 81 | 1015.3 |
| 20260903134026 | 82 | 198 | 6.0 | 8.0 | 0.00 | 0.00 | 0.00 | 83 | 1015.4 |
| 20260903133524 | 82 | 176 | 12.0 | 14.0 | 0.00 | 0.00 | 0.00 | 83 | 1015.4 |
| 20260903133019 | 81 | 174 | 11.0 | 14.0 | 0.00 | 0.00 | 0.00 | 84 | 1015.4 |
| 20260903132514 | 81 | 185 | 9.0 | 10.0 | 0.00 | 0.00 | 0.00 | 84 | 1015.4 |
| 20260903132009 | 81 | 215 | 8.0 | 10.0 | 0.00 | 0.00 | 0.00 | 84 | 1015.6 |
| 20260903131504 | 81 | 188 | 5.0 | 7.0 | 0.00 | 0.00 | 0.00 | 85 | 1015.4 |
| 20260903130957 | 81 | 181 | 6.0 | 7.0 | 0.00 | 0.00 | 0.00 | 85 | 1015.6 |
| 20260903130452 | 81 | 218 | 6.0 | 8.0 | 0.00 | 0.00 | 0.00 | 85 | 1015.6 |
| 20260903125950 | 81 | 152 | 3.0 | 6.0 | 0.00 | 0.00 | 0.00 | 85 | 1015.6 |
| 20260903125444 | 81 | 180 | 6.0 | 8.0 | 0.00 | 0.00 | 0.00 | 85 | 1015.4 |
| 20260903124939 | 81 | 183 | 6.0 | 9.0 | 0.00 | 0.00 | 0.00 | 85 | 1015.2 |
| 20260903124434 | 81 | 190 | 10.0 | 13.0 | 0.00 | 0.00 | 0.00 | 86 | 1015.3 |
| 20260903123933 | 81 | 181 | 9.0 | 10.0 | 0.00 | 0.00 | 0.00 | 86 | 1015.3 |
| 20260903123428 | 81 | 130 | 3.0 | 6.0 | 0.00 | 0.00 | 0.00 | 86 | 1015.3 |
| 20260903122926 | 81 | 192 | 4.0 | 6.0 | 0.00 | 0.00 | 0.00 | 86 | 1015.1 |
| 20260903122421 | 81 | 195 | 10.0 | 11.0 | 0.00 | 0.00 | 0.00 | 86 | 1015.2 |
| 20260903121920 | 81 | 178 | 7.0 | 9.0 | 0.00 | 0.00 | 0.00 | 86 | 1015.2 |
| 20260903121415 | 81 | 151 | 6.0 | 7.0 | 0.00 | 0.00 | 0.00 | 86 | 1015.0 |
| 20260903120911 | 81 | 189 | 7.0 | 8.0 | 0.00 | 0.00 | 0.00 | 86 | 1015.1 |
| 20260903120409 | 81 | 159 | 4.0 | 4.0 | 0.00 | 0.00 | 0.00 | 87 | 1015.1 |
| 20260903115908 | 81 | 185 | 9.0 | 11.0 | 0.00 | 0.00 | 0.00 | 87 | 1015.0 |
| 20260903115403 | 81 | 194 | 5.0 | 6.0 | 0.00 | 0.00 | 0.00 | 87 | 1014.9 |
| 20260903114858 | 81 | 181 | 8.0 | 11.0 | 0.00 | 0.00 | 0.00 | 87 | 1015.1 |
| 20260903114354 | 80 | 203 | 6.0 | 8.0 | 0.00 | 0.00 | 0.00 | 87 | 1015.0 |
| 20260903113849 | 81 | 179 | 6.0 | 7.0 | 0.00 | 0.00 | 0.00 | 87 | 1015.0 |
| 20260903113344 | 81 | 173 | 4.0 | 8.0 | 0.00 | 0.00 | 0.00 | 87 | 1015.0 |
| 20260903112840 | 81 | 180 | 6.0 | 7.0 | 0.00 | 0.00 | 0.00 | 87 | 1014.9 |
| 20260903112336 | 81 | 165 | 4.0 | 4.0 | 0.00 | 0.00 | 0.00 | 87 | 1015.1 |
| 20260903111834 | 81 | 153 | 9.0 | 11.0 | 0.00 | 0.00 | 0.00 | 86 | 1015.1 |
| 20260903111329 | 81 | 185 | 10.0 | 13.0 | 0.00 | 0.00 | 0.00 | 87 | 1015.0 |
| 20260903110826 | 81 | 179 | 10.0 | 14.0 | 0.00 | 0.00 | 0.00 | 87 | 1014.9 |
| 20260903110321 | 81 | 180 | 6.0 | 7.0 | 0.00 | 0.00 | 0.00 | 87 | 1014.8 |
| 20260903105820 | 80 | 131 | 8.0 | 9.0 | 0.00 | 0.00 | 0.00 | 87 | 1014.8 |
| 20260903105310 | 81 | 188 | 3.0 | 6.0 | 0.00 | 0.00 | 0.00 | 87 | 1014.8 |
| 20260903104809 | 80 | 153 | 8.0 | 10.0 | 0.00 | 0.00 | 0.00 | 87 | 1014.8 |
| 20260903104304 | 80 | 175 | 7.0 | 8.0 | 0.00 | 0.00 | 0.00 | 87 | 1014.8 |
| 20260903103801 | 80 | 181 | 8.0 | 10.0 | 0.00 | 0.00 | 0.00 | 87 | 1014.7 |
| 20260903103256 | 80 | 187 | 8.0 | 10.0 | 0.00 | 0.00 | 0.00 | 87 | 1014.5 |
| 20260903102751 | 80 | 173 | 8.0 | 10.0 | 0.00 | 0.00 | 0.00 | 87 | 1014.7 |
| 20260903102246 | 80 | 193 | 9.0 | 13.0 | 0.00 | 0.00 | 0.00 | 87 | 1014.6 |
| 20260903101744 | 80 | 186 | 6.0 | 8.0 | 0.00 | 0.00 | 0.00 | 87 | 1014.7 |
| 20260903101240 | 80 | 189 | 13.0 | 15.0 | 0.00 | 0.00 | 0.00 | 87 | 1014.5 |
| 20260903100736 | 80 | 219 | 4.0 | 6.0 | 0.00 | 0.00 | 0.00 | 87 | 1014.6 |
| 20260903100230 | 80 | 188 | 11.0 | 15.0 | 0.00 | 0.00 | 0.00 | 87 | 1014.7 |
| 20260903095727 | 80 | 167 | 6.0 | 7.0 | 0.00 | 0.00 | 0.00 | 87 | 1014.3 |
| 20260903095223 | 80 | 168 | 9.0 | 11.0 | 0.00 | 0.00 | 0.00 | 87 | 1014.6 |
| 20260903094718 | 80 | 178 | 5.0 | 8.0 | 0.00 | 0.00 | 0.00 | 86 | 1014.6 |
| 20260903094213 | 80 | 140 | 5.0 | 8.0 | 0.00 | 0.00 | 0.00 | 87 | 1014.7 |
| 20260903093708 | 80 | 132 | 5.0 | 6.0 | 0.00 | 0.00 | 0.00 | 86 | 1014.7 |
| 20260903093203 | 80 | 182 | 5.0 | 7.0 | 0.00 | 0.00 | 0.00 | 86 | 1014.8 |
| 20260903092657 | 81 | 179 | 10.0 | 13.0 | 0.00 | 0.00 | 0.00 | 86 | 1014.7 |
| 20260903092151 | 81 | 139 | 12.0 | 15.0 | 0.00 | 0.00 | 0.00 | 86 | 1015.0 |
| 20260903091650 | 81 | 140 | 5.0 | 6.0 | 0.00 | 0.00 | 0.00 | 86 | 1014.8 |
| 20260903091144 | 81 | 196 | 8.0 | 10.0 | 0.00 | 0.00 | 0.00 | 86 | 1015.0 |
| 20260903090640 | 81 | 182 | 8.0 | 10.0 | 0.00 | 0.00 | 0.00 | 85 | 1014.8 |
| 20260903090139 | 81 | 174 | 8.0 | 11.0 | 0.00 | 0.00 | 0.00 | 85 | 1014.9 |
| 20260903085638 | 81 | 175 | 9.0 | 13.0 | 0.00 | 0.00 | 0.00 | 85 | 1014.9 |
| 20260903085134 | 81 | 204 | 5.0 | 7.0 | 0.00 | 0.00 | 0.00 | 85 | 1015.0 |
| 20260903084631 | 81 | 206 | 6.0 | 7.0 | 0.00 | 0.00 | 0.00 | 85 | 1014.9 |
| 20260903084126 | 81 | 159 | 6.0 | 7.0 | 0.00 | 0.00 | 0.00 | 85 | 1014.8 |
| 20260903083621 | 81 | 212 | 6.0 | 8.0 | 0.00 | 0.00 | 0.00 | 85 | 1015.2 |
| 20260903083116 | 81 | 180 | 4.0 | 4.0 | 0.00 | 0.00 | 0.00 | 84 | 1015.0 |
| 20260903082610 | 81 | 182 | 9.0 | 11.0 | 0.00 | 0.00 | 0.00 | 85 | 1014.9 |
| 20260903082106 | 81 | 174 | 6.0 | 8.0 | 0.00 | 0.00 | 0.00 | 85 | 1015.0 |
| 20260903081601 | 81 | 198 | 10.0 | 13.0 | 0.00 | 0.00 | 0.00 | 85 | 1015.1 |
| 20260903081057 | 81 | 113 | 6.0 | 9.0 | 0.00 | 0.00 | 0.00 | 84 | 1014.9 |
| 20260903080553 | 81 | 177 | 9.0 | 11.0 | 0.00 | 0.00 | 0.00 | 84 | 1014.9 |
| 20260903080049 | 81 | 157 | 2.0 | 2.0 | 0.00 | 0.00 | 0.00 | 84 | 1015.0 |
| 20260903075544 | 81 | 121 | 2.0 | 4.0 | 0.00 | 0.00 | 0.00 | 84 | 1015.0 |
| 20260903075040 | 81 | 92 | 7.0 | 8.0 | 0.00 | 0.00 | 0.00 | 84 | 1014.9 |
| 20260903074538 | 81 | 140 | 6.0 | 9.0 | 0.00 | 0.00 | 0.00 | 84 | 1014.9 |